Zurück zum Katalog

SL-12 R/B(2)

AktivHEO
NORAD 25334·ROCKET BODY·🇷🇺 Russia

Gestartet May 7, 1998 von Baikonur Cosmodrome

Loading…

Nächste Überflüge (nächste 24 Stunden)

TLE

AktuellSource: Space-Track

Epoche: Sep 13, 2026, 09:25 UTC

1 25334U 98028D   26256.39268318 -.00000190  00000-0  00000-0 0  9996
2 25334  17.3627 344.5745 4858813   6.6889 345.6841  1.82177809188653

Verfolge SL-12 R/B(2) in Echtzeit mit AllMySat

Download on the App Store